Stations météo

réclame
Mon MeteoGroup
Llanes, Espagne (8016): Température de l'air & dewpoint: 16.07.2018 18:00:00 - 22.07.2018 18:00:00 (CEST)Llanes, Espagne (8016): Vitesse du vent & gusts: 16.07.2018 18:00:00 - 22.07.2018 18:00:00 (CEST)Llanes, Espagne (8016): Direction du vent: 16.07.2018 18:00:00 - 22.07.2018 18:00:00 (CEST)Llanes, Espagne (8016): reduced air pressure: 16.07.2018 18:00:00 - 22.07.2018 18:00:00 (CEST)Llanes, Espagne (8016): visibility: 16.07.2018 18:00:00 - 22.07.2018 18:00:00 (CEST)Llanes, Espagne (8016): Ensoleillement: 16.07.2018 18:00:00 - 22.07.2018 18:00:00 (CEST)Llanes, Espagne (8016): Quantités de précipitations: 16.07.2018 18:00:00 - 22.07.2018 18:00:00 (CEST)
Date & Time tt [°C] td [°C] ff [km/h] ff [knt] fx [km/h] fx [knt] dd ppp [hPa] vv [km] sd [min] rr [mm]
22.07.2018 18:00:00 23,7 17,5 5 3 10 5 NE 1017,9 20 60 0,0
22.07.2018 17:00:00 23,7 17,5 4 2 8 5 N 1018,1 20 60 0,0
22.07.2018 16:00:00 23,4 18,5 4 2 9 5 N 1018,2 20 39 0,0
22.07.2018 15:00:00 22,9 18,2 6 3 17 9 NNW 1018,2 20 25 0,0
22.07.2018 14:00:00 23,3 18,6 9 5 16 9 NNW 1018,3 20 36 -
22.07.2018 13:00:00 21,9 17,5 10 6 25 13 NNW 1018,2 20 53 0,0
22.07.2018 12:00:00 22,1 17,7 14 7 24 13 NW 1017,9 20 60 0,0
22.07.2018 11:00:00 21,6 17,0 14 7 22 12 NW 1017,7 20 60 0,0
22.07.2018 10:00:00 20,0 16,5 9 5 19 10 WNW 1017,7 20 60 0,0
22.07.2018 09:00:00 18,9 16,3 5 3 13 7 W 1017,5 20 2 0,0
22.07.2018 08:00:00 17,9 15,5 5 3 10 5 SW 1017,2 20 0 -
22.07.2018 07:00:00 17,9 15,5 5 3 11 6 WSW 1017,1 20 0 0,0
22.07.2018 06:00:00 18,0 15,6 5 3 10 5 W 1016,8 20 0 0,0
22.07.2018 05:00:00 18,2 15,6 4 2 11 6 W 1017,0 20 0 0,0
22.07.2018 04:00:00 18,4 15,8 5 3 11 6 W 1016,9 20 0 0,0
22.07.2018 03:00:00 18,1 15,7 4 2 9 5 WSW 1017,0 20 0 0,0
22.07.2018 02:00:00 18,1 15,7 4 2 10 5 W 1017,3 20 0 -
22.07.2018 01:00:00 18,0 15,6 4 2 14 7 WSW 1017,3 20 0 0,0
22.07.2018 00:00:00 18,2 15,8 7 4 19 10 W 1017,1 20 0 0,0
21.07.2018 23:00:00 18,3 15,9 3 2 11 6 WSW 1017,1 20 0 0,0
21.07.2018 22:00:00 18,8 16,4 3 2 10 5 W 1016,9 14 0 0,0
21.07.2018 21:00:00 19,0 16,6 3 2 9 5 SW 1016,9 20 0 0,0
21.07.2018 20:00:00 18,9 16,7 3 1 13 7 N 1016,9 13 0 -
21.07.2018 19:00:00 18,5 16,1 12 6 19 10 ESE 1017,1 13 0 0,0
21.07.2018 18:00:00 18,9 16,3 5 3 13 7 E 1017,1 11 0 0,6
21.07.2018 17:00:00 18,5 15,7 2 1 19 11 NNE 1017,3 4,2 0 2,0
21.07.2018 16:00:00 19,6 15,3 9 5 21 11 NNW 1017,6 7 0 0,2
21.07.2018 15:00:00 19,8 14,6 3 2 12 7 N 1017,3 20 0 0,0
21.07.2018 14:00:00 19,7 14,7 10 5 16 8 NW 1017,7 20 0 -
21.07.2018 13:00:00 19,5 14,7 10 5 23 13 NW 1018,0 20 0 0,0
21.07.2018 12:00:00 19,9 14,7 16 9 27 14 NW 1017,5 20 48 0,0
21.07.2018 11:00:00 19,8 14,8 14 7 20 11 NW 1017,2 20 24 0,0
21.07.2018 10:00:00 19,1 14,3 8 4 17 9 W 1017,8 20 43 0,0
21.07.2018 09:00:00 17,6 13,9 3 2 9 5 W 1017,7 20 15 0,0
21.07.2018 08:00:00 16,4 12,7 5 3 11 6 WSW 1017,8 20 0 -
21.07.2018 07:00:00 15,9 12,4 6 4 12 7 WSW 1017,9 20 0 0,0
21.07.2018 06:00:00 16,1 12,8 6 3 15 8 WSW 1017,8 20 0 0,0
21.07.2018 05:00:00 16,3 13,3 6 3 15 8 W 1017,8 20 0 0,0
21.07.2018 04:00:00 17,1 13,9 5 3 13 7 SW 1018,4 20 0 0,0
21.07.2018 03:00:00 17,4 14,1 5 3 10 5 W 1019,1 20 0 0,0
21.07.2018 02:00:00 17,4 14,1 4 2 10 5 WSW 1019,4 20 0 -
21.07.2018 01:00:00 17,3 14,0 4 2 11 6 WSW 1019,7 20 0 0,0
21.07.2018 00:00:00 17,3 14,0 5 3 11 6 WSW 1019,8 20 0 0,0
20.07.2018 23:00:00 17,7 14,4 4 2 13 7 WSW 1020,2 20 0 0,0
20.07.2018 22:00:00 18,7 14,8 7 4 16 9 W 1019,8 20 20 0,0
20.07.2018 21:00:00 19,5 15,2 7 4 15 8 WNW 1019,5 20 16 0,0
20.07.2018 20:00:00 19,7 15,3 8 4 15 8 WNW 1019,5 20 0 -
20.07.2018 19:00:00 20,0 15,6 8 4 17 9 WNW 1019,7 20 0 0,2
20.07.2018 18:00:00 19,9 16,0 8 5 16 9 WNW 1019,8 20 9 0,0
20.07.2018 17:00:00 18,9 16,0 5 3 24 13 W 1020,2 20 0 0,0
20.07.2018 16:00:00 18,6 16,2 6 3 14 8 W 1020,3 20 0 0,0
20.07.2018 15:00:00 17,7 15,7 11 6 26 14 SW 1020,2 20 0 1,4
20.07.2018 14:00:00 17,6 15,6 5 3 18 10 SW 1020,5 4,9 0 -
20.07.2018 13:00:00 17,5 15,5 9 5 21 11 WSW 1020,2 20 0 0,6
20.07.2018 12:00:00 17,7 15,9 8 5 19 11 WSW 1019,9 7 0 1,8
20.07.2018 11:00:00 17,6 16,0 10 5 19 10 SW 1019,5 2,6 0 2,8
20.07.2018 10:00:00 17,5 15,9 10 5 21 11 SW 1019,3 2,4 0 1,2
20.07.2018 09:00:00 17,6 16,0 7 4 17 9 WSW 1019,0 4,9 0 1,2
20.07.2018 08:00:00 17,5 15,9 8 4 15 8 WSW 1018,8 2,4 0 -
20.07.2018 07:00:00 17,4 15,5 5 3 20 11 W 1018,6 1,8 0 1,0
20.07.2018 06:00:00 17,5 15,7 7 4 16 8 W 1018,4 12 0 0,0
20.07.2018 05:00:00 17,8 16,0 10 5 24 13 W 1018,5 20 0 0,0
20.07.2018 04:00:00 18,1 16,0 5 3 11 6 W 1018,6 20 0 0,0
20.07.2018 03:00:00 18,1 16,0 3 2 11 6 SW 1018,8 20 0 0,0
20.07.2018 02:00:00 18,3 16,3 6 4 12 7 WSW 1019,0 20 0 -
20.07.2018 01:00:00 18,2 16,1 5 3 11 6 SW 1019,5 20 0 0,0
20.07.2018 00:00:00 18,2 16,1 7 4 12 6 SW 1019,7 20 0 0,6
19.07.2018 23:00:00 18,3 16,3 3 1 12 6 W 1019,8 20 0 0,4
19.07.2018 22:00:00 18,3 16,3 6 4 14 8 SW 1019,5 20 0 0,0
19.07.2018 21:00:00 18,7 16,8 6 3 22 12 WSW 1019,3 10 0 5,4
19.07.2018 20:00:00 19,1 17,2 6 3 16 9 W 1018,8 18 0 -
19.07.2018 19:00:00 18,8 16,8 10 5 16 9 SW 1018,4 9 0 1,4
19.07.2018 18:00:00 19,4 17,4 9 5 18 10 SW 1018,3 20 0 0,2
19.07.2018 17:00:00 19,7 17,6 5 3 15 8 WSW 1018,2 2,1 0 0,4
19.07.2018 16:00:00 20,1 18,1 7 4 14 7 W 1018,1 4,5 0 0,4
19.07.2018 15:00:00 20,1 17,9 7 4 19 10 WSW 1017,8 20 0 0,4
19.07.2018 14:00:00 20,4 18,0 5 3 23 12 W 1017,6 4,2 0 -
19.07.2018 13:00:00 20,4 17,6 16 8 34 18 NE 1017,4 20 0 1,4
19.07.2018 12:00:00 20,5 18,1 20 11 25 13 ENE 1017,0 4,1 0 1,6
19.07.2018 11:00:00 20,6 18,4 10 6 20 11 ESE 1016,4 9 0 0,0
19.07.2018 10:00:00 20,7 18,6 11 6 23 12 SE 1015,8 4,6 0 0,8
19.07.2018 09:00:00 20,8 18,8 1 1 10 6 SSW 1016,4 5 0 0,8
19.07.2018 08:00:00 20,5 18,5 10 6 24 13 SE 1016,1 3,0 0 -
19.07.2018 07:00:00 20,5 18,5 9 5 23 13 ESE 1016,2 1,6 0 1,8
19.07.2018 06:00:00 20,7 18,5 9 5 16 9 SE 1015,9 6 0 1,0
19.07.2018 05:00:00 20,6 18,2 4 2 14 7 SSE 1016,0 3,0 0 2,2
19.07.2018 04:00:00 20,9 18,1 5 3 19 11 SSE 1016,2 3,4 0 0,0
19.07.2018 03:00:00 21,3 18,1 16 9 21 11 E 1016,5 20 0 0,0
19.07.2018 02:00:00 21,4 18,0 15 8 21 11 ENE 1016,9 20 0 -
19.07.2018 01:00:00 21,5 18,3 16 9 21 11 ENE 1017,3 20 0 0,0
19.07.2018 00:00:00 21,5 18,3 16 9 21 11 E 1017,3 19 0 0,0
18.07.2018 23:00:00 21,5 18,3 14 8 21 11 E 1017,2 14 0 0,0
18.07.2018 22:00:00 21,5 18,5 14 8 21 12 ENE 1016,6 20 0 0,0
18.07.2018 21:00:00 21,7 18,7 15 8 20 11 E 1016,6 11 0 0,0
18.07.2018 20:00:00 21,8 18,8 13 7 22 12 E 1016,1 10 0 -
18.07.2018 19:00:00 21,7 18,7 13 7 26 14 ENE 1016,2 9 0 0,0
18.07.2018 18:00:00 21,8 18,6 19 11 27 15 ENE 1015,7 11 0 0,0
18.07.2018 17:00:00 22,0 18,8 19 10 30 16 ENE 1015,3 14 0 0,0
18.07.2018 16:00:00 22,5 19,1 18 10 26 14 E 1015,1 16 0 0,0
18.07.2018 15:00:00 22,1 18,7 18 10 24 13 ENE 1015,2 19 0 0,0
18.07.2018 14:00:00 22,5 18,9 20 11 27 15 E 1014,7 20 0 -
18.07.2018 13:00:00 23,2 19,1 18 10 28 15 E 1014,7 15 39 0,0
18.07.2018 12:00:00 24,2 19,7 16 9 23 13 E 1014,3 20 60 0,0
18.07.2018 11:00:00 23,1 19,3 11 6 21 12 E 1014,4 11 46 0,0
18.07.2018 10:00:00 22,3 18,3 14 8 28 15 E 1014,3 15 22 0,0
18.07.2018 09:00:00 21,8 17,8 15 8 28 15 ESE 1014,2 13 11 0,0
18.07.2018 08:00:00 20,8 17,4 6 3 13 7 SE 1014,2 19 9 -
18.07.2018 07:00:00 20,7 17,7 6 3 16 9 ESE 1014,4 7 0 0,0
18.07.2018 06:00:00 20,5 17,3 4 2 9 5 ESE 1014,5 8 0 0,0
18.07.2018 05:00:00 20,5 17,3 4 2 13 7 SSE 1014,9 18 0 0,0
18.07.2018 04:00:00 20,8 18,0 11 6 29 16 ESE 1015,2 12 0 0,0
18.07.2018 03:00:00 20,9 17,7 11 6 17 9 ESE 1015,8 16 0 0,0
18.07.2018 02:00:00 21,2 18,0 15 8 29 16 ESE 1016,3 13 0 -
18.07.2018 01:00:00 21,0 17,6 18 10 26 14 E 1016,9 20 0 0,0
18.07.2018 00:00:00 21,1 17,1 6 3 11 6 ESE 1017,4 11 0 0,0
17.07.2018 23:00:00 21,0 17,1 6 3 10 5 SE 1017,6 13 0 0,0
17.07.2018 22:00:00 21,0 16,8 3 2 16 9 S 1017,7 20 0 0,0
17.07.2018 21:00:00 21,1 17,1 8 4 14 7 E 1017,7 20 0 0,0
17.07.2018 20:00:00 21,3 16,9 5 3 12 7 NE 1017,8 20 0 -
17.07.2018 19:00:00 21,7 16,6 4 2 11 6 ESE 1018,0 20 0 0,0
17.07.2018 18:00:00 22,0 16,5 5 3 11 6 SE 1018,4 20 0 0,0
17.07.2018 17:00:00 21,9 16,4 5 3 11 6 ESE 1018,8 20 0 0,0
17.07.2018 16:00:00 21,9 17,1 5 3 10 5 E 1019,1 20 0 0,0
17.07.2018 15:00:00 21,4 17,4 1 1 6 4 S 1019,1 20 0 0,0
17.07.2018 14:00:00 21,6 17,8 2 1 8 4 WSW 1019,6 17 0 -
17.07.2018 13:00:00 21,4 17,4 7 4 18 10 NW 1019,9 20 7 0,0
17.07.2018 12:00:00 22,4 17,9 13 7 19 10 NW 1019,9 20 55 0,0
17.07.2018 11:00:00 22,4 17,9 13 7 19 11 NW 1020,0 20 60 0,0
17.07.2018 10:00:00 21,8 17,6 13 7 20 11 NW 1020,2 20 60 0,0
17.07.2018 09:00:00 20,7 16,9 5 3 10 5 WNW 1020,3 20 59 0,0
17.07.2018 08:00:00 19,4 16,0 3 2 8 4 W 1020,3 20 27 -
17.07.2018 07:00:00 18,8 15,4 1 1 8 4 SW 1020,2 20 0 0,0
17.07.2018 06:00:00 19,2 15,9 4 2 8 5 SW 1020,2 20 0 0,0
17.07.2018 05:00:00 - - - - - - - - - - -
17.07.2018 04:00:00 19,4 16,0 6 3 11 6 WSW 1020,6 20 0 0,0
17.07.2018 03:00:00 19,8 16,2 4 2 10 5 SW 1020,9 20 0 0,0
17.07.2018 02:00:00 19,8 16,2 4 2 10 5 SW 1021,4 1,7 0 -
17.07.2018 01:00:00 19,7 16,1 5 3 8 5 WSW 1021,8 20 0 0,0
17.07.2018 00:00:00 20,3 16,6 5 3 10 6 SW 1022,1 20 0 0,0
16.07.2018 23:00:00 20,7 16,3 3 2 8 4 SW 1022,2 20 0 0,0
16.07.2018 22:00:00 21,0 16,2 3 2 15 8 W 1021,7 20 0 0,0
16.07.2018 21:00:00 21,5 16,2 10 5 25 13 NW 1021,4 20 18 0,0
16.07.2018 20:00:00 21,7 16,2 13 7 20 11 NW 1021,1 20 3 -
16.07.2018 19:00:00 22,7 15,8 13 7 23 13 NW 1021,0 20 51 0,0
16.07.2018 18:00:00 23,1 16,1 13 7 32 18 NW 1021,1 20 60 0,0

tt = Température de l'air
td = dewpoint
ff = Vitesse du vent
fx = gusts
dd = Direction du vent
ppp = reduced air pressure
vv = visibility
sd = Ensoleillement
rr = Quantités de précipitations

stations d'obs. à proximité